TimeMST,TemperatureF,Dew PointF,Humidity,Sea Level PressureIn,VisibilityMPH,Wind Direction,Wind SpeedMPH,Gust SpeedMPH,PrecipitationIn,Events,Conditions,WindDirDegrees,DateUTC
12:33 AM,3.0,-2.0,80,30.41,2.5,SW,4.6,-,0.00,Snow,Light Snow,220,2014-02-04 07:33:00
12:49 AM,3.2,-2.2,78,30.41,3.0,SW,5.8,-,0.00,Snow,Light Snow,230,2014-02-04 07:49:00
12:53 AM,3.0,-2.0,80,30.56,3.0,WSW,5.8,-,0.00,Snow,Light Snow,240,2014-02-04 07:53:00
1:53 AM,3.9,-0.9,80,30.58,10.0,West,5.8,-,0.00,,Overcast,280,2014-02-04 08:53:00
2:53 AM,3.9,-2.0,76,30.60,4.0,North,6.9,-,0.00,Snow,Light Snow,360,2014-02-04 09:53:00
3:08 AM,3.9,-2.9,73,30.45,2.0,North,9.2,-,0.00,Snow,Light Snow,10,2014-02-04 10:08:00
3:49 AM,3.2,-5.8,66,30.47,3.0,North,5.8,-,0.00,Snow,Light Snow,10,2014-02-04 10:49:00
3:53 AM,1.9,-5.1,72,30.62,3.0,NNE,6.9,-,0.00,,Haze,20,2014-02-04 10:53:00
4:53 AM,1.9,-6.0,69,30.64,10.0,NNE,8.1,-,N/A,,Overcast,20,2014-02-04 11:53:00
5:53 AM,1.0,-7.1,69,30.67,10.0,NNE,6.9,-,N/A,,Overcast,20,2014-02-04 12:53:00
6:53 AM,-0.0,-8.0,69,30.69,10.0,Calm,Calm,-,N/A,,Overcast,0,2014-02-04 13:53:00
7:53 AM,-2.9,-9.0,75,30.71,9.0,Calm,Calm,-,N/A,,Overcast,0,2014-02-04 14:53:00
8:53 AM,1.0,-7.1,69,30.73,10.0,West,4.6,-,N/A,,Mostly Cloudy,280,2014-02-04 15:53:00
9:53 AM,3.9,-8.0,58,30.73,10.0,NNW,10.4,-,N/A,,Clear,330,2014-02-04 16:53:00
10:53 AM,5.0,-9.0,52,30.75,10.0,NNW,6.9,-,N/A,,Partly Cloudy,330,2014-02-04 17:53:00
11:53 AM,6.1,-9.0,50,30.74,10.0,North,-9999.0,-,N/A,,Scattered Clouds,0,2014-02-04 18:53:00
12:53 PM,7.0,-8.0,51,30.72,10.0,West,8.1,-,N/A,,Mostly Cloudy,260,2014-02-04 19:53:00
1:53 PM,8.1,-9.0,46,30.71,10.0,WNW,10.4,-,N/A,,Mostly Cloudy,290,2014-02-04 20:53:00
2:53 PM,7.0,-8.0,51,30.71,10.0,NNW,10.4,19.6,N/A,,Overcast,340,2014-02-04 21:53:00
3:53 PM,6.1,-11.9,44,30.73,10.0,NW,12.7,-,N/A,,Clear,320,2014-02-04 22:53:00
4:53 PM,1.9,-11.9,52,30.76,10.0,WNW,9.2,-,N/A,,Clear,300,2014-02-04 23:53:00
5:53 PM,-2.9,-13.0,62,30.80,10.0,NNW,5.8,-,N/A,,Clear,340,2014-02-05 00:53:00
6:53 PM,-8.0,-15.0,71,30.82,10.0,NNW,3.5,-,N/A,,Clear,340,2014-02-05 01:53:00
7:53 PM,-9.0,-15.0,75,30.84,10.0,NW,3.5,-,N/A,,Clear,310,2014-02-05 02:53:00
8:53 PM,-9.0,-15.0,75,30.84,10.0,West,4.6,-,N/A,,Partly Cloudy,270,2014-02-05 03:53:00
9:53 PM,-9.9,-15.0,78,30.85,10.0,SW,3.5,-,N/A,,Clear,230,2014-02-05 04:53:00
10:53 PM,-8.0,-15.0,71,30.86,10.0,Calm,Calm,-,N/A,,Overcast,0,2014-02-05 05:53:00
11:53 PM,-8.0,-15.0,71,30.87,10.0,Calm,Calm,-,N/A,,Clear,0,2014-02-05 06:53:00